Simultaneous Nadir Overpasses (SNOs) Predictions

Prediction of SNOs between GOES-16 and TERRA Satellite Orbit:

Table of predicted SNOs for the next 14.0 days since TLE Epoch: 5/9/2020
Index Date Time (GOES-16) GOES-16 Lat,Lon TERRA Lat,Lon Distance(km) Time Diff (sec)
1 05/10/2020 15:26:38 0.03, -75.21 -0.30, -73.81 160.24 80
2 05/11/2020 03:48:02 -0.03, -75.19 -0.82, -79.00 433.06 80
3 05/12/2020 15:14:26 0.03, -75.23 -0.89, -70.84 497.74 80
4 05/13/2020 03:35:50 -0.02, -75.20 -0.23, -76.03 95.40 80
5 05/15/2020 03:20:59 -0.02, -75.22 0.43, -73.08 243.26 80
6 05/15/2020 15:42:15 0.02, -75.26 0.64, -78.24 339.23 80
7 05/17/2020 15:30:03 0.01, -75.29 0.04, -75.28 3.19 80
8 05/19/2020 15:20:32 0.01, -75.33 -0.62, -72.33 340.84 80
9 05/20/2020 03:41:56 -0.01, -75.31 -0.49, -77.52 251.30 80
10 05/22/2020 03:27:05 -0.01, -75.35 0.18, -74.57 89.50 80
11 05/22/2020 15:48:20 0.01, -75.39 0.95, -79.72 492.88 80




NCC Satellite Simultaneous Nadir Overpasses (SNOs) Prediction Service
